When you browse on this site, cookies collect data to enhance your experience and personalize the content and advertising you see.
Visit our Privacy Policy to learn more. By continuing to use the site, you agree to this use of cookies and data.
  • In Schweiz
  • Länderverzeichnis
  • Für 7 Tage
  • Wassertemperatur
  • Satellitenkarten
  • Wetterkarte
  • Widgets
  • user-avatar
    Anmelden

    Stündliche Wetter Enkamp

    Heute, 22 März, Freitag

    Zeit Temperatur Niederschläge Wind Luftdruck Luftfeuchtigkeit
    00:00 0°C° 0 mm 1 m/S 627 mmHg 51%
    01:00 0°C° 0 mm 1 m/S 627 mmHg 51%
    02:00 0°C° 0 mm 1 m/S 627 mmHg 50%
    03:00 0°C° 0 mm 1 m/S 627 mmHg 49%
    04:00 0°C° 0 mm 1 m/S 627 mmHg 51%
    05:00 0°C° 0 mm 1 m/S 627 mmHg 52%
    06:00 0°C° 0 mm 1 m/S 627 mmHg 54%
    07:00 +3°C° 0 mm 1 m/S 628 mmHg 51%
    08:00 +6°C° 0 mm 1 m/S 630 mmHg 48%
    09:00 +9°C° 0 mm 1 m/S 631 mmHg 45%
    10:00 +10°C° 0 mm 1 m/S 631 mmHg 43%
    11:00 +11°C° 0 mm 1 m/S 631 mmHg 41%
    12:00 +12°C° 0 mm 1 m/S 632 mmHg 39%
    13:00 +12°C° 0 mm 1 m/S 631 mmHg 42%
    14:00 +11°C° 0 mm 1 m/S 631 mmHg 44%
    15:00 +11°C° 0 mm 1 m/S 630 mmHg 47%
    16:00 +9°C° 0.1 mm 1 m/S 630 mmHg 54%
    17:00 +8°C° 0.1 mm 1 m/S 629 mmHg 61%
    18:00 +5°C° 0.1 mm 0 m/S 628 mmHg 68%
    19:00 +5°C° 0 mm 1 m/S 628 mmHg 71%
    20:00 +4°C° 0 mm 1 m/S 628 mmHg 74%
    21:00 +3°C° 0 mm 1 m/S 628 mmHg 77%
    22:00 +3°C° 0 mm 1 m/S 628 mmHg 77%
    23:00 +3°C° 0 mm 1 m/S 628 mmHg 77%

    Morgen, 23 März, Samstag

    Zeit Temperatur Niederschläge Wind Luftdruck Luftfeuchtigkeit
    00:00 +3°C° 0 mm 1 m/S 628 mmHg 77%
    01:00 +2°C° 0 mm 1 m/S 628 mmHg 77%
    02:00 +2°C° 0 mm 1 m/S 627 mmHg 76%
    03:00 +2°C° 0 mm 1 m/S 627 mmHg 76%
    04:00 +2°C° 0 mm 1 m/S 627 mmHg 75%
    05:00 +2°C° 0 mm 1 m/S 627 mmHg 74%
    06:00 +2°C° 0 mm 1 m/S 627 mmHg 73%
    07:00 +5°C° 0 mm 1 m/S 628 mmHg 64%
    08:00 +8°C° 0 mm 1 m/S 629 mmHg 54%
    09:00 +10°C° 0 mm 1 m/S 631 mmHg 44%
    10:00 +11°C° 0 mm 1 m/S 631 mmHg 41%
    11:00 +13°C° 0 mm 1 m/S 631 mmHg 37%
    12:00 +14°C° 0 mm 1 m/S 631 mmHg 34%
    13:00 +14°C° 0 mm 1 m/S 631 mmHg 36%
    14:00 +13°C° 0 mm 1 m/S 630 mmHg 37%
    15:00 +13°C° 0 mm 1 m/S 630 mmHg 38%
    16:00 +11°C° 0 mm 1 m/S 629 mmHg 46%
    17:00 +9°C° 0 mm 1 m/S 628 mmHg 54%
    18:00 +7°C° 0 mm 1 m/S 627 mmHg 62%
    19:00 +6°C° 0 mm 1 m/S 627 mmHg 66%
    20:00 +5°C° 0 mm 1 m/S 627 mmHg 70%
    21:00 +4°C° 0 mm 1 m/S 627 mmHg 74%
    22:00 +4°C° 0 mm 1 m/S 627 mmHg 73%
    23:00 +4°C° 0 mm 1 m/S 627 mmHg 73%

    übermorgen, 24 März, Sonntag

    Zeit Temperatur Niederschläge Wind Luftdruck Luftfeuchtigkeit
    00:00 +4°C° 0 mm 1 m/S 627 mmHg 72%
    01:00 +4°C° 0 mm 1 m/S 626 mmHg 71%
    02:00 +4°C° 0 mm 1 m/S 626 mmHg 70%
    03:00 +4°C° 0 mm 1 m/S 626 mmHg 69%
    04:00 +4°C° 0 mm 1 m/S 626 mmHg 70%
    05:00 +3°C° 0 mm 1 m/S 626 mmHg 70%
    06:00 +3°C° 0 mm 1 m/S 626 mmHg 71%
    07:00 +5°C° 0 mm 0 m/S 627 mmHg 62%
    08:00 +7°C° 0 mm 0 m/S 628 mmHg 54%
    09:00 +10°C° 0 mm 0 m/S 630 mmHg 45%
    10:00 +11°C° 0 mm 0 m/S 630 mmHg 43%
    11:00 +13°C° 0 mm 1 m/S 630 mmHg 41%
    12:00 +14°C° 0 mm 1 m/S 630 mmHg 38%
    13:00 +13°C° 0.1 mm 1 m/S 630 mmHg 42%
    14:00 +12°C° 0.1 mm 1 m/S 629 mmHg 45%
    15:00 +12°C° 0.1 mm 1 m/S 628 mmHg 49%
    16:00 +10°C° 0.2 mm 1 m/S 628 mmHg 56%
    17:00 +9°C° 0.2 mm 1 m/S 627 mmHg 63%
    18:00 +8°C° 0.2 mm 1 m/S 627 mmHg 71%
    19:00 +7°C° 0 mm 1 m/S 627 mmHg 75%
    20:00 +6°C° 0 mm 1 m/S 627 mmHg 80%
    21:00 +4°C° 0 mm 1 m/S 626 mmHg 84%
    22:00 +4°C° 0 mm 1 m/S 626 mmHg 85%
    23:00 +4°C° 0 mm 1 m/S 626 mmHg 86%

    25 März, Montag

    Zeit Temperatur Niederschläge Wind Luftdruck Luftfeuchtigkeit
    00:00 +4°C° 0 mm 1 m/S 626 mmHg 87%
    01:00 +4°C° 0 mm 1 m/S 626 mmHg 88%
    02:00 +4°C° 0 mm 1 m/S 625 mmHg 88%
    03:00 +3°C° 0 mm 1 m/S 625 mmHg 89%
    04:00 +3°C° 0 mm 1 m/S 625 mmHg 89%
    05:00 +3°C° 0 mm 1 m/S 625 mmHg 89%
    06:00 +3°C° 0 mm 1 m/S 625 mmHg 90%
    07:00 +5°C° 0 mm 1 m/S 626 mmHg 79%
    08:00 +8°C° 0 mm 1 m/S 627 mmHg 69%
    09:00 +10°C° 0 mm 1 m/S 628 mmHg 59%
    10:00 +11°C° 0.1 mm 1 m/S 628 mmHg 58%
    11:00 +11°C° 0.1 mm 1 m/S 629 mmHg 56%
    12:00 +12°C° 0.1 mm 1 m/S 629 mmHg 55%
    13:00 +11°C° 0.7 mm 1 m/S 628 mmHg 59%
    14:00 +11°C° 0.7 mm 1 m/S 627 mmHg 64%
    15:00 +10°C° 0.7 mm 1 m/S 627 mmHg 68%
    16:00 +9°C° 0.8 mm 1 m/S 626 mmHg 74%
    17:00 +8°C° 0.8 mm 1 m/S 626 mmHg 79%
    18:00 +7°C° 0.8 mm 1 m/S 626 mmHg 85%
    19:00 +6°C° 0.1 mm 1 m/S 626 mmHg 88%
    20:00 +6°C° 0.1 mm 1 m/S 626 mmHg 90%
    21:00 +5°C° 0.1 mm 1 m/S 626 mmHg 93%
    22:00 +5°C° 0 mm 1 m/S 626 mmHg 93%
    23:00 +4°C° 0 mm 1 m/S 626 mmHg 94%

    26 März, Dienstag

    Zeit Temperatur Niederschläge Wind Luftdruck Luftfeuchtigkeit
    00:00 +4°C° 0 mm 1 m/S 625 mmHg 94%
    01:00 +4°C° 0 mm 1 m/S 625 mmHg 94%
    02:00 +3°C° 0 mm 1 m/S 625 mmHg 93%
    03:00 +3°C° 0 mm 1 m/S 625 mmHg 93%
    04:00 +3°C° 0 mm 1 m/S 625 mmHg 92%
    05:00 +3°C° 0 mm 1 m/S 625 mmHg 91%
    06:00 +3°C° 0 mm 1 m/S 625 mmHg 90%
    07:00 +5°C° 0 mm 1 m/S 626 mmHg 78%
    08:00 +8°C° 0 mm 1 m/S 627 mmHg 65%
    09:00 +9°C° 0 mm 0 m/S 628 mmHg 53%
    10:00 +12°C° 0 mm 1 m/S 629 mmHg 47%
    11:00 +13°C° 0 mm 1 m/S 629 mmHg 42%
    12:00 +15°C° 0 mm 1 m/S 630 mmHg 37%
    13:00 +14°C° 0 mm 1 m/S 629 mmHg 38%
    14:00 +14°C° 0 mm 1 m/S 629 mmHg 40%
    15:00 +14°C° 0 mm 1 m/S 629 mmHg 42%
    16:00 +12°C° 0 mm 1 m/S 628 mmHg 50%
    17:00 +10°C° 0 mm 1 m/S 628 mmHg 59%
    18:00 +9°C° 0 mm 1 m/S 627 mmHg 68%
    19:00 +8°C° 0 mm 1 m/S 627 mmHg 74%
    20:00 +6°C° 0 mm 1 m/S 627 mmHg 80%
    21:00 +5°C° 0 mm 1 m/S 627 mmHg 86%
    22:00 +5°C° 0 mm 1 m/S 627 mmHg 87%
    23:00 +5°C° 0 mm 1 m/S 627 mmHg 88%

    27 März, Mittwoch

    Zeit Temperatur Niederschläge Wind Luftdruck Luftfeuchtigkeit
    00:00 +3°C° 0 mm 2 m/S 627 mmHg 90%
    01:00 +3°C° 0 mm 2 m/S 627 mmHg 87%
    02:00 +3°C° 0 mm 2 m/S 627 mmHg 85%
    03:00 +3°C° 0 mm 2 m/S 627 mmHg 82%
    04:00 +2°C° 0 mm 2 m/S 627 mmHg 78%
    05:00 +2°C° 0 mm 2 m/S 627 mmHg 74%
    06:00 +2°C° 0 mm 2 m/S 627 mmHg 71%
    07:00 +5°C° 0 mm 2 m/S 628 mmHg 58%
    08:00 +7°C° 0 mm 2 m/S 629 mmHg 46%
    09:00 +10°C° 0 mm 2 m/S 630 mmHg 34%
    10:00 +12°C° 0 mm 2 m/S 631 mmHg 32%
    11:00 +13°C° 0 mm 2 m/S 631 mmHg 29%
    12:00 +14°C° 0 mm 2 m/S 631 mmHg 27%
    13:00 +14°C° 0 mm 2 m/S 631 mmHg 29%
    14:00 +14°C° 0 mm 2 m/S 631 mmHg 31%
    15:00 +14°C° 0 mm 2 m/S 631 mmHg 32%
    16:00 +12°C° 0 mm 2 m/S 630 mmHg 42%
    17:00 +9°C° 0 mm 2 m/S 629 mmHg 51%
    18:00 +7°C° 0 mm 2 m/S 628 mmHg 61%
    19:00 +6°C° 0 mm 2 m/S 628 mmHg 67%
    20:00 +4°C° 0 mm 2 m/S 628 mmHg 72%
    21:00 +3°C° 0 mm 2 m/S 628 mmHg 78%
    22:00 +4°C° 0 mm 1 m/S 628 mmHg 78%
    23:00 +4°C° 0 mm 1 m/S 628 mmHg 79%
    Mehr zeigen